GW3602 Weather Reports


Display with metric or nautical units.
time (UTC)temp
F
wind
direction
speed
MPH
gust
MPH
rain 1hr
in
rain 24hr
in
rain mn
in
humidity
%
barometer
mb
20260504021528 50 321 0.0 3.0 0.00 0.00 0.00 54 1012.8
20260504020037 51 247 0.0 2.0 0.00 0.00 0.00 53 1012.4
20260504014523 51 199 0.0 4.0 0.00 0.00 0.00 51 1012.3
20260504013007 52 159 0.0 2.0 0.00 0.00 0.00 50 1012.1
20260504011509 53 96 1.0 3.0 0.00 0.00 0.00 49 1012.0
20260504010016 53 186 0.0 4.0 0.00 0.00 0.00 47 1012.1
20260504004510 54 162 1.0 6.0 0.00 0.00 0.00 46 1012.1
20260504003004 55 181 1.0 6.0 0.00 0.00 0.00 44 1012.1
20260504001513 56 160 2.0 10.0 0.00 0.00 0.00 43 1012.1
20260504000009 57 340 2.0 6.0 0.00 0.00 0.00 43 1012.2
20260503234517 57 279 2.0 9.0 0.00 0.00 0.00 42 1012.2
20260503233007 57 181 3.0 9.0 0.00 0.00 0.00 42 1012.3
20260503231505 57 138 3.0 6.0 0.00 0.00 0.00 42 1012.3
20260503230018 57 303 3.0 9.0 0.00 0.00 0.00 43 1012.3
20260503224513 57 289 2.0 7.0 0.00 0.00 0.00 42 1012.4
20260503223019 57 245 2.0 12.0 0.00 0.00 0.00 42 1012.6
20260503221504 57 177 3.0 10.0 0.00 0.00 0.00 41 1012.6
20260503220004 58 298 6.0 17.0 0.00 0.00 0.00 41 1012.6
20260503214526 58 191 2.0 14.0 0.00 0.00 0.00 41 1012.6
20260503213016 58 49 3.0 10.0 0.00 0.00 0.00 40 1012.5
20260503211517 58 150 2.0 12.0 0.00 0.00 0.00 41 1012.5
20260503210003 59 333 5.0 11.0 0.00 0.00 0.00 40 1012.5
20260503204508 59 244 2.0 9.0 0.00 0.00 0.00 41 1012.6
20260503203015 59 229 2.0 11.0 0.00 0.00 0.00 39 1012.7
20260503201519 58 319 2.0 9.0 0.00 0.00 0.00 40 1012.9
20260503200026 58 230 2.0 12.0 0.00 0.00 0.00 41 1013.1
20260503194525 59 257 4.0 14.0 0.00 0.00 0.00 39 1013.3
20260503193011 59 209 3.0 8.0 0.00 0.00 0.00 38 1013.5
20260503191532 60 256 3.0 12.0 0.00 0.00 0.00 41 1013.7
20260503190027 59 146 4.0 14.0 0.00 0.00 0.00 39 1013.8
20260503184524 58 323 8.0 14.0 0.00 0.00 0.00 37 1013.9
20260503183029 58 304 7.0 12.0 0.00 0.00 0.00 38 1014.1
20260503181510 58 214 3.0 11.0 0.00 0.00 0.00 44 1014.2
20260503180017 58 322 3.0 12.0 0.00 0.00 0.00 43 1014.3
20260503174521 58 284 5.0 13.0 0.00 0.00 0.00 41 1014.5
20260503173022 58 328 3.0 9.0 0.00 0.00 0.00 44 1014.7
20260503171526 57 243 3.0 17.0 0.00 0.00 0.00 45 1014.9
20260503081533 34 226 0.0 1.0 0.00 0.13 0.00 81 1016.1
20260503071523 35 139 0.0 2.0 0.00 0.13 0.00 80 1016.1
20260503054533 35 112 0.0 1.0 0.00 0.15 0.00 79 1016.4
20260503053031 35 213 0.0 1.0 0.00 0.15 0.00 78 1016.5
20260503051515 36 216 0.0 1.0 0.00 0.15 0.00 76 1016.4
20260503050020 36 195 0.0 1.0 0.00 0.15 0.00 75 1016.5
20260503044536 36 218 0.0 1.0 0.00 0.15 0.00 73 1016.6
20260503043033 37 216 0.0 1.0 0.00 0.16 0.00 71 1016.6
20260503041526 37 157 0.0 0.0 0.00 0.16 0.00 70 1016.6
20260503040018 38 278 0.0 1.0 0.00 0.16 0.00 70 1016.8
20260503034520 38 280 0.0 1.0 0.00 0.16 0.16 71 1016.7
20260503033024 39 281 0.0 1.0 0.00 0.16 0.16 70 1016.9
20260503031525 39 281 0.0 1.0 0.00 0.16 0.16 69 1017.0
20260503030034 39 281 0.0 0.0 0.00 0.16 0.16 68 1017.0
20260503024520 39 281 0.0 1.0 0.00 0.16 0.16 68 1017.1
20260503023021 38 289 0.0 1.0 0.00 0.16 0.16 68 1017.3